When you browse on this site, cookies collect data to enhance your experience and personalize the content and advertising you see.
Visit our Privacy Policy to learn more. By continuing to use the site, you agree to this use of cookies and data.
  • In Sweden
  • List of Countries
  • For 7 days
  • Water Temperature
  • Satellite Maps
  • Weather Map
  • Weather Widgets
  • user-avatar
    Login

    Hourly Weather Baleyara

    Today, 21 May, Tuesday

    Time Temperature Precipitation Wind Pressure Humidity
    00:00 +34°C° 0.2 mm 6 mps 737 mmHg 45%
    01:00 +34°C° 0 mm 5 mps 736 mmHg 44%
    02:00 +34°C° 0 mm 4 mps 736 mmHg 44%
    03:00 +34°C° 0 mm 3 mps 736 mmHg 43%
    04:00 +34°C° 0 mm 4 mps 736 mmHg 47%
    05:00 +33°C° 0 mm 5 mps 736 mmHg 51%
    06:00 +33°C° 0 mm 6 mps 736 mmHg 55%
    07:00 +35°C° 0 mm 5 mps 737 mmHg 49%
    08:00 +36°C° 0 mm 5 mps 738 mmHg 43%
    09:00 +39°C° 0 mm 5 mps 739 mmHg 37%
    10:00 +39°C° 0.4 mm 6 mps 738 mmHg 36%
    11:00 +39°C° 0.4 mm 6 mps 738 mmHg 35%
    12:00 +40°C° 0.4 mm 6 mps 738 mmHg 34%
    13:00 +40°C° 0 mm 6 mps 737 mmHg 33%
    14:00 +41°C° 0 mm 6 mps 737 mmHg 32%
    15:00 +41°C° 0 mm 5 mps 736 mmHg 31%
    16:00 +41°C° 0 mm 4 mps 736 mmHg 30%
    17:00 +40°C° 0 mm 3 mps 736 mmHg 30%
    18:00 +40°C° 0 mm 2 mps 735 mmHg 29%
    19:00 +39°C° 0 mm 3 mps 736 mmHg 31%
    20:00 +40°C° 0 mm 4 mps 736 mmHg 32%
    21:00 +40°C° 0 mm 5 mps 736 mmHg 34%
    22:00 +38°C° 0 mm 4 mps 736 mmHg 38%
    23:00 +37°C° 0 mm 4 mps 736 mmHg 42%

    Tomorrow, 22 May, Wednesday

    Time Temperature Precipitation Wind Pressure Humidity
    00:00 +37°C° 0 mm 3 mps 736 mmHg 46%
    01:00 +36°C° 0 mm 3 mps 736 mmHg 48%
    02:00 +36°C° 0 mm 3 mps 735 mmHg 49%
    03:00 +35°C° 0 mm 3 mps 735 mmHg 51%
    04:00 +35°C° 0 mm 3 mps 736 mmHg 50%
    05:00 +35°C° 0 mm 4 mps 736 mmHg 49%
    06:00 +35°C° 0 mm 4 mps 736 mmHg 48%
    07:00 +36°C° 0 mm 5 mps 737 mmHg 45%
    08:00 +38°C° 0 mm 6 mps 738 mmHg 42%
    09:00 +38°C° 0 mm 7 mps 738 mmHg 39%
    10:00 +40°C° 0 mm 6 mps 738 mmHg 36%
    11:00 +41°C° 0 mm 6 mps 738 mmHg 32%
    12:00 +42°C° 0 mm 5 mps 737 mmHg 29%
    13:00 +43°C° 0 mm 4 mps 737 mmHg 27%
    14:00 +43°C° 0 mm 3 mps 736 mmHg 24%
    15:00 +44°C° 0 mm 3 mps 735 mmHg 22%
    16:00 +43°C° 0 mm 2 mps 735 mmHg 22%
    17:00 +43°C° 0 mm 1 mps 735 mmHg 21%
    18:00 +40°C° 0 mm 0 mps 735 mmHg 21%
    19:00 +39°C° 0 mm 0 mps 736 mmHg 22%
    20:00 +42°C° 0 mm 1 mps 736 mmHg 23%
    21:00 +41°C° 0 mm 1 mps 737 mmHg 24%
    22:00 +41°C° 0 mm 2 mps 736 mmHg 26%
    23:00 +40°C° 0 mm 3 mps 736 mmHg 27%

    Day after tomorrow, 23 May, Thursday

    Time Temperature Precipitation Wind Pressure Humidity
    00:00 +40°C° 0 mm 4 mps 736 mmHg 29%
    01:00 +40°C° 0 mm 4 mps 736 mmHg 32%
    02:00 +38°C° 0 mm 4 mps 735 mmHg 34%
    03:00 +39°C° 0 mm 5 mps 735 mmHg 37%
    04:00 +37°C° 0 mm 5 mps 736 mmHg 38%
    05:00 +37°C° 0 mm 5 mps 736 mmHg 40%
    06:00 +37°C° 0 mm 5 mps 736 mmHg 41%
    07:00 +39°C° 0 mm 5 mps 736 mmHg 38%
    08:00 +40°C° 0 mm 5 mps 737 mmHg 35%
    09:00 +41°C° 0 mm 6 mps 737 mmHg 32%
    10:00 +42°C° 0 mm 5 mps 737 mmHg 30%
    11:00 +43°C° 0 mm 4 mps 737 mmHg 28%
    12:00 +44°C° 0 mm 4 mps 736 mmHg 25%
    13:00 +45°C° 0 mm 3 mps 736 mmHg 23%
    14:00 +45°C° 0 mm 2 mps 735 mmHg 21%
    15:00 +46°C° 0 mm 2 mps 734 mmHg 19%
    16:00 +45°C° 0.1 mm 2 mps 734 mmHg 19%
    17:00 +45°C° 0.1 mm 3 mps 734 mmHg 20%
    18:00 +44°C° 0.1 mm 3 mps 734 mmHg 20%
    19:00 +44°C° 0.1 mm 3 mps 735 mmHg 21%
    20:00 +44°C° 0.1 mm 4 mps 735 mmHg 22%
    21:00 +43°C° 0.1 mm 4 mps 735 mmHg 22%
    22:00 +43°C° 0 mm 3 mps 735 mmHg 23%
    23:00 +42°C° 0 mm 3 mps 735 mmHg 25%

    24 May, Friday

    Time Temperature Precipitation Wind Pressure Humidity
    00:00 +40°C° 0 mm 3 mps 734 mmHg 26%
    01:00 +40°C° 0 mm 3 mps 734 mmHg 27%
    02:00 +41°C° 0 mm 4 mps 734 mmHg 28%
    03:00 +40°C° 0 mm 5 mps 734 mmHg 29%
    04:00 +40°C° 0 mm 5 mps 735 mmHg 31%
    05:00 +39°C° 0 mm 5 mps 735 mmHg 34%
    06:00 +39°C° 0 mm 5 mps 735 mmHg 36%
    07:00 +39°C° 0 mm 6 mps 736 mmHg 38%
    08:00 +39°C° 0 mm 7 mps 737 mmHg 40%
    09:00 +40°C° 0 mm 8 mps 737 mmHg 41%
    10:00 +41°C° 0 mm 8 mps 737 mmHg 39%
    11:00 +43°C° 0 mm 8 mps 736 mmHg 37%
    12:00 +43°C° 0 mm 8 mps 736 mmHg 35%
    13:00 +44°C° 0 mm 8 mps 735 mmHg 34%
    14:00 +44°C° 0 mm 8 mps 735 mmHg 33%
    15:00 +44°C° 0 mm 8 mps 734 mmHg 31%
    16:00 +44°C° 0 mm 7 mps 734 mmHg 31%
    17:00 +43°C° 0 mm 7 mps 734 mmHg 31%
    18:00 +42°C° 0 mm 6 mps 735 mmHg 32%
    19:00 +42°C° 0 mm 6 mps 735 mmHg 33%
    20:00 +41°C° 0 mm 6 mps 736 mmHg 35%
    21:00 +40°C° 0 mm 7 mps 736 mmHg 36%
    22:00 +40°C° 0 mm 7 mps 736 mmHg 38%
    23:00 +39°C° 0 mm 7 mps 735 mmHg 39%

    25 May, Saturday

    Time Temperature Precipitation Wind Pressure Humidity
    00:00 +38°C° 0 mm 7 mps 735 mmHg 41%
    01:00 +38°C° 0 mm 7 mps 735 mmHg 42%
    02:00 +38°C° 0 mm 7 mps 735 mmHg 44%
    03:00 +36°C° 0 mm 7 mps 735 mmHg 45%
    04:00 +36°C° 0 mm 7 mps 735 mmHg 46%
    05:00 +36°C° 0 mm 6 mps 736 mmHg 46%
    06:00 +35°C° 0 mm 6 mps 736 mmHg 47%
    07:00 +36°C° 0 mm 6 mps 736 mmHg 44%
    08:00 +38°C° 0 mm 7 mps 737 mmHg 41%
    09:00 +39°C° 0 mm 7 mps 737 mmHg 38%
    10:00 +41°C° 0 mm 7 mps 737 mmHg 34%
    11:00 +42°C° 0 mm 6 mps 737 mmHg 30%
    12:00 +44°C° 0 mm 6 mps 736 mmHg 26%
    13:00 +45°C° 0 mm 5 mps 736 mmHg 24%
    14:00 +44°C° 0 mm 4 mps 735 mmHg 23%
    15:00 +45°C° 0 mm 4 mps 734 mmHg 21%
    16:00 +45°C° 0 mm 3 mps 735 mmHg 21%
    17:00 +44°C° 0 mm 3 mps 735 mmHg 21%
    18:00 +43°C° 0 mm 2 mps 735 mmHg 20%
    19:00 +43°C° 0 mm 2 mps 735 mmHg 22%
    20:00 +42°C° 0 mm 2 mps 735 mmHg 23%
    21:00 +42°C° 0 mm 3 mps 735 mmHg 25%
    22:00 +42°C° 0 mm 3 mps 735 mmHg 26%
    23:00 +40°C° 0 mm 3 mps 735 mmHg 28%

    26 May, Sunday

    Time Temperature Precipitation Wind Pressure Humidity
    00:00 +39°C° 0 mm 3 mps 735 mmHg 30%
    01:00 +40°C° 0 mm 4 mps 735 mmHg 33%
    02:00 +39°C° 0 mm 5 mps 734 mmHg 35%
    03:00 +39°C° 0 mm 6 mps 734 mmHg 38%
    04:00 +38°C° 0 mm 6 mps 735 mmHg 42%
    05:00 +36°C° 0 mm 6 mps 735 mmHg 46%
    06:00 +36°C° 0 mm 6 mps 736 mmHg 50%
    07:00 +36°C° 0 mm 6 mps 736 mmHg 47%
    08:00 +38°C° 0 mm 6 mps 737 mmHg 45%
    09:00 +39°C° 0 mm 7 mps 737 mmHg 42%
    10:00 +40°C° 0 mm 6 mps 737 mmHg 39%
    11:00 +41°C° 0 mm 6 mps 736 mmHg 35%
    12:00 +42°C° 0 mm 5 mps 736 mmHg 31%
    13:00 +43°C° 0 mm 5 mps 735 mmHg 29%
    14:00 +44°C° 0 mm 4 mps 735 mmHg 27%
    15:00 +44°C° 0 mm 4 mps 734 mmHg 25%
    16:00 +44°C° 0 mm 3 mps 734 mmHg 24%
    17:00 +44°C° 0 mm 3 mps 734 mmHg 24%
    18:00 +44°C° 0 mm 3 mps 734 mmHg 23%
    19:00 +43°C° 0 mm 3 mps 735 mmHg 24%
    20:00 +43°C° 0 mm 3 mps 735 mmHg 24%
    21:00 +43°C° 0 mm 3 mps 735 mmHg 25%
    22:00 +42°C° 0 mm 3 mps 735 mmHg 26%
    23:00 +40°C° 0 mm 3 mps 735 mmHg 28%
    Show more